カタログに戻る

LDPE-3A

運用中科学GEO
NORAD 55264·PAYLOAD·🇺🇸 United States

打ち上げ Jan 15, 2023 から Cape Canaveral Space Force Station

Loading…

TLE

最新Source: Space-Track

元期: Sep 14, 2026, 12:29 UTC

1 55264U 23008B   26257.52058617  .00000047  00000-0  00000-0 0  9992
2 55264   2.5748  80.4797 0002211 103.9932 245.9137  0.99144168 12699

AllMySatでLDPE-3Aをリアルタイム追跡

Download on the App Store